"Period start","avg(HW err(1)/warn(2) (#))","avg(Visibility (m))","avg(Weather code (#))","avg(Precip intensity (mm/h))","min(HW err(1)/warn(2) (#))","max(HW err(1)/warn(2) (#))","std(HW err(1)/warn(2) (#))","med(HW err(1)/warn(2) (#))","min(Visibility (m))","max(Visibility (m))","std(Visibility (m))","med(Visibility (m))","min(Weather code (#))","max(Weather code (#))","std(Weather code (#))","med(Weather code (#))","min(Precip intensity (mm/h))","max(Precip intensity (mm/h))","std(Precip intensity (mm/h))","med(Precip intensity (mm/h))"
2016-10-28 00:00:00,2,5641,37,0.00,2,2,0,2,3577,8368,1658,5716,10,78,33,10,0.00,0.00,0.00,0.00
2016-10-28 00:10:00,2,3621,74,0.05,2,2,0,2,2868,4455,586,3580,71,77,3,74,0.00,0.25,0.07,0.03
2016-10-28 00:20:00,2,4268,75,0.08,2,2,0,2,3169,5243,696,4100,71,77,3,77,0.00,0.55,0.16,0.05
2016-10-28 00:30:00,2,3031,72,0.23,2,2,0,2,2328,3745,470,2878,71,77,2,71,0.05,0.55,0.17,0.17
2016-10-28 00:40:00,2,3752,71,0.40,2,2,0,2,2902,4567,485,3724,71,71,0,71,0.15,0.75,0.23,0.35
2016-10-28 00:50:00,2,3453,71,0.41,2,2,0,2,2322,4916,872,3288,71,71,0,71,0.10,0.75,0.21,0.47
2016-10-28 01:00:00,2,2721,71,0.33,2,2,0,2,2189,3212,276,2760,71,71,0,71,0.20,0.65,0.14,0.30
2016-10-28 01:10:00,2,2472,71,0.13,2,2,0,2,1911,2960,353,2382,71,71,0,71,0.05,0.30,0.08,0.12
2016-10-28 01:20:00,2,2972,72,0.09,2,2,0,2,2173,3755,510,2888,71,77,2,71,0.05,0.25,0.06,0.05
2016-10-28 01:30:00,2,2434,75,0.10,2,2,0,2,1862,2870,330,2466,71,77,3,77,0.05,0.15,0.04,0.10
2016-10-28 01:40:00,2,2789,76,0.04,2,2,0,2,1570,4267,849,2703,71,77,2,77,0.00,0.15,0.04,0.05
2016-10-28 01:50:00,2,2150,77,0.10,2,2,0,2,1123,3800,725,2064,77,77,0,77,0.00,0.35,0.09,0.08
2016-10-28 02:00:00,2,1851,77,0.17,2,2,0,2,1120,2597,534,1792,77,77,0,77,0.10,0.35,0.08,0.12
2016-10-28 02:10:00,2,2504,77,0.07,2,2,0,2,1409,3369,599,2556,77,77,0,77,0.00,0.15,0.05,0.05
2016-10-28 02:20:00,2,2492,77,0.07,2,2,0,2,2064,2840,265,2545,77,77,0,77,0.05,0.10,0.02,0.05
2016-10-28 02:30:00,2,1966,73,0.11,2,2,0,2,1308,3163,463,1979,71,77,3,71,0.05,0.30,0.07,0.10
2016-10-28 02:40:00,2,1696,76,0.09,2,2,0,2,1188,2181,310,1724,71,77,2,77,0.05,0.25,0.06,0.05
2016-10-28 02:50:00,2,1900,77,0.10,2,2,0,2,1435,2511,364,1835,77,77,0,77,0.05,0.15,0.04,0.10
2016-10-28 03:00:00,2,2072,77,0.07,2,2,0,2,1508,2987,413,1956,77,77,0,77,0.05,0.10,0.02,0.05
2016-10-28 03:10:00,2,2055,77,0.07,2,2,0,2,1562,2478,308,2076,77,77,0,77,0.05,0.15,0.03,0.05
2016-10-28 03:20:00,2,1969,77,0.07,2,2,0,2,1421,2482,345,2004,77,77,0,77,0.05,0.20,0.05,0.05
2016-10-28 03:30:00,2,1963,77,0.08,2,2,0,2,1244,2709,459,1986,77,77,0,77,0.00,0.15,0.05,0.05
2016-10-28 03:40:00,2,2900,77,0.04,2,2,0,2,2164,4501,668,2594,77,77,0,77,0.00,0.10,0.03,0.05
2016-10-28 03:50:00,2,2784,77,0.05,2,2,0,2,2266,3101,227,2815,77,77,0,77,0.05,0.05,0.00,0.05
2016-10-28 04:00:00,2,2974,77,0.04,2,2,0,2,2231,5605,956,2583,77,77,0,77,0.00,0.05,0.02,0.05
2016-10-28 04:10:00,2,2913,77,0.04,2,2,0,2,1413,4071,780,2920,77,77,0,77,0.00,0.20,0.06,0.03
2016-10-28 04:20:00,2,3645,56,0.02,2,2,0,2,2155,4437,710,3856,10,77,30,77,0.00,0.10,0.03,0.00
2016-10-28 04:30:00,2,3183,76,0.03,2,2,0,2,2119,4535,629,3304,71,77,2,77,0.00,0.05,0.02,0.05
2016-10-28 04:40:00,2,2673,77,0.04,2,2,0,2,1977,3730,488,2718,77,77,0,77,0.00,0.05,0.02,0.05
2016-10-28 04:50:00,2,2377,77,0.06,2,2,0,2,1875,3110,363,2250,77,77,0,77,0.05,0.15,0.03,0.05
2016-10-28 05:00:00,2,2442,77,0.06,2,2,0,2,1748,2886,415,2592,77,77,0,77,0.00,0.10,0.03,0.05
2016-10-28 05:10:00,2,2115,77,0.07,2,2,0,2,1566,2643,386,1996,77,77,0,77,0.05,0.15,0.03,0.05
2016-10-28 05:20:00,2,2273,77,0.07,2,2,0,2,1591,2792,385,2414,77,77,0,77,0.05,0.10,0.02,0.05
2016-10-28 05:30:00,2,2228,77,0.10,2,2,0,2,1511,3444,515,2168,77,77,0,77,0.05,0.25,0.06,0.10
2016-10-28 05:40:00,2,2484,77,0.06,2,2,0,2,2022,2827,291,2500,77,77,0,77,0.05,0.15,0.03,0.05
2016-10-28 05:50:00,2,2356,77,0.10,2,2,0,2,1690,2818,305,2416,77,77,0,77,0.05,0.30,0.07,0.08
2016-10-28 06:00:00,2,2426,71,0.26,2,2,0,2,1820,2972,367,2416,71,71,0,71,0.05,0.45,0.11,0.28
2016-10-28 06:10:00,2,2462,71,0.32,2,2,0,2,1791,3324,495,2382,71,71,0,71,0.20,0.45,0.07,0.33
2016-10-28 06:20:00,2,2135,71,0.40,2,2,0,2,1752,2511,214,2158,71,71,0,71,0.25,0.75,0.14,0.35
2016-10-28 06:30:00,2,2422,71,0.32,2,2,0,2,1949,2962,290,2427,71,71,0,71,0.10,0.55,0.12,0.30
2016-10-28 06:40:00,2,3927,75,0.07,2,2,0,2,2602,5272,842,3658,71,77,3,77,0.05,0.15,0.03,0.05
2016-10-28 06:50:00,2,4110,77,0.05,2,2,0,2,3451,5305,499,4091,77,77,0,77,0.05,0.05,0.00,0.05
2016-10-28 07:00:00,2,3593,77,0.04,2,2,0,2,3000,4414,425,3561,77,78,0,77,0.00,0.05,0.02,0.05
2016-10-28 07:10:00,2,3422,77,0.04,2,2,0,2,2649,4704,576,3408,77,77,0,77,0.00,0.05,0.02,0.05
2016-10-28 07:20:00,2,2881,77,0.04,2,2,0,2,1994,3266,357,2998,77,77,0,77,0.00,0.05,0.02,0.05
2016-10-28 07:30:00,2,3866,77,0.01,2,2,0,2,2774,5039,660,3582,77,77,0,77,0.00,0.05,0.02,0.00
2016-10-28 07:40:00,2,3652,77,0.00,2,2,0,2,2884,4765,546,3536,77,77,0,77,0.00,0.00,0.00,0.00
2016-10-28 07:50:00,2,3662,77,0.03,2,2,0,2,2732,5345,814,3274,77,77,0,77,0.00,0.05,0.03,0.03
2016-10-28 08:00:00,2,3948,77,0.00,2,2,0,2,3007,4759,548,3982,77,77,0,77,0.00,0.00,0.00,0.00
2016-10-28 08:10:00,2,3465,77,0.03,2,2,0,2,2238,5298,1122,3091,77,77,0,77,0.00,0.05,0.03,0.03
2016-10-28 08:20:00,2,2800,77,0.02,2,2,0,2,2132,3382,427,2828,77,77,0,77,0.00,0.05,0.02,0.00
2016-10-28 08:30:00,2,2488,77,0.03,2,2,0,2,1989,2989,309,2462,77,77,0,77,0.00,0.05,0.02,0.05
2016-10-28 08:40:00,2,3450,77,0.01,2,2,0,2,2644,4934,681,3332,77,77,0,77,0.00,0.05,0.02,0.00
2016-10-28 08:50:00,2,5517,47,0.00,2,2,0,2,3960,6458,684,5675,10,77,33,77,0.00,0.00,0.00,0.00
2016-10-28 09:00:00,2,6011,10,0.00,2,2,0,2,5200,7253,668,5866,10,10,0,10,0.00,0.00,0.00,0.00
2016-10-28 09:10:00,2,6938,10,0.00,2,2,0,2,5409,9336,1128,6584,10,10,0,10,0.00,0.00,0.00,0.00
2016-10-28 09:20:00,2,8124,10,0.00,2,2,0,2,6492,10686,1154,8060,10,10,0,10,0.00,0.00,0.00,0.00
2016-10-28 09:30:00,2,8988,10,0.00,2,2,0,2,4523,12563,2113,8956,10,10,0,10,0.00,0.00,0.00,0.00
2016-10-28 09:40:00,2,4739,29,0.00,2,2,0,2,2440,9090,2017,3786,10,78,29,10,0.00,0.00,0.00,0.00
2016-10-28 09:50:00,2,2419,78,0.05,2,2,0,2,1749,4417,727,2272,78,78,0,78,0.00,0.15,0.04,0.05
2016-10-28 10:00:00,2,1702,77,0.20,2,2,0,2,1175,3236,597,1410,77,78,0,77,0.00,0.35,0.13,0.23
2016-10-28 10:10:00,2,2181,77,0.04,2,2,0,2,1597,2711,302,2212,77,77,0,77,0.00,0.10,0.04,0.05
2016-10-28 10:20:00,2,2511,77,0.04,2,2,0,2,1562,3727,668,2470,77,77,0,77,0.00,0.10,0.03,0.05
2016-10-28 10:30:00,2,2325,77,0.07,2,2,0,2,1758,3461,584,2128,77,77,0,77,0.00,0.15,0.05,0.05
2016-10-28 10:40:00,2,2179,77,0.07,2,2,0,2,1408,2570,307,2242,77,77,0,77,0.00,0.30,0.08,0.05
2016-10-28 10:50:00,2,3342,76,0.03,2,2,0,2,1795,4304,815,3358,71,78,3,77,0.00,0.15,0.05,0.00
2016-10-28 11:00:00,2,3950,78,0.02,2,2,0,2,2848,5003,625,3948,78,78,0,78,0.00,0.05,0.02,0.00
2016-10-28 11:10:00,2,5461,78,0.00,2,2,0,2,3653,7751,1409,5012,78,78,0,78,0.00,0.00,0.00,0.00
2016-10-28 11:20:00,2,5328,37,0.00,2,2,0,2,3722,7433,984,5109,10,78,33,10,0.00,0.00,0.00,0.00
2016-10-28 11:30:00,2,4975,43,0.01,2,2,0,2,2692,7362,1400,5145,10,78,33,40,0.00,0.05,0.02,0.00
2016-10-28 11:40:00,2,13947,24,0.00,2,2,0,2,7051,24716,4351,13518,10,78,27,10,0.00,0.00,0.00,0.00
2016-10-28 11:50:00,2,12749,0,0.00,2,2,0,2,9438,16791,2461,12922,0,0,0,0,0.00,0.00,0.00,0.00
2016-10-28 12:00:00,2,7030,77,0.00,2,2,0,2,5914,9149,936,6789,71,78,3,78,0.00,0.00,0.00,0.00
2016-10-28 12:10:00,2,10567,78,0.00,2,2,0,2,6371,13265,2029,10908,78,78,0,78,0.00,0.00,0.00,0.00
2016-10-28 12:20:00,2,7543,78,0.00,2,2,0,2,6134,10061,1097,7386,78,78,0,78,0.00,0.00,0.00,0.00
2016-10-28 12:30:00,2,4905,78,0.00,2,2,0,2,3721,6496,934,4481,78,78,0,78,0.00,0.00,0.00,0.00
2016-10-28 12:40:00,2,4461,78,0.01,2,2,0,2,3445,6057,753,4388,77,78,0,78,0.00,0.10,0.03,0.00
2016-10-28 12:50:00,2,5426,74,0.00,2,2,0,2,4417,7001,772,5396,71,78,3,74,0.00,0.00,0.00,0.00
2016-10-28 13:00:00,2,7486,78,0.00,2,2,0,2,4104,10721,2188,7399,78,78,0,78,0.00,0.00,0.00,0.00
2016-10-28 13:10:00,2,5484,78,0.01,2,2,0,2,2706,7299,1246,5564,78,78,0,78,0.00,0.05,0.02,0.00
2016-10-28 13:20:00,2,4219,77,0.01,2,2,0,2,3008,5250,778,4364,77,78,0,77,0.00,0.05,0.02,0.00
2016-10-28 13:30:00,2,4442,74,0.03,2,2,0,2,2813,6099,890,4400,71,77,3,74,0.00,0.15,0.05,0.00
2016-10-28 13:40:00,2,4003,77,0.03,2,2,0,2,3377,5068,535,3874,77,77,0,77,0.00,0.05,0.03,0.03
2016-10-28 13:50:00,2,3562,73,0.07,2,2,0,2,2905,5110,590,3482,71,77,3,71,0.05,0.15,0.04,0.05
2016-10-28 14:00:00,2,2936,71,0.18,2,2,0,2,2264,4357,529,2824,71,71,0,71,0.05,0.50,0.16,0.15
2016-10-28 14:10:00,2,2164,71,0.23,2,2,0,2,1539,2926,369,2246,71,71,0,71,0.05,0.95,0.28,0.12
2016-10-28 14:20:00,2,1869,71,0.26,2,2,0,2,1578,2300,262,1762,71,71,0,71,0.10,0.55,0.14,0.25
2016-10-28 14:30:00,2,2279,72,0.09,2,2,0,2,1904,2803,229,2265,71,77,2,71,0.00,0.20,0.06,0.05
2016-10-28 14:40:00,2,3802,77,0.01,2,2,0,2,2183,5289,899,3692,77,78,0,77,0.00,0.05,0.02,0.00
2016-10-28 14:50:00,2,4327,78,0.01,2,2,0,2,3392,5391,654,4333,78,78,0,78,0.00,0.05,0.02,0.00
2016-10-28 15:00:00,2,6454,78,0.00,2,2,0,2,3694,8908,1328,6668,78,78,0,78,0.00,0.00,0.00,0.00
2016-10-28 15:10:00,2,7626,78,0.00,2,2,0,2,5621,10101,1391,7332,78,78,0,78,0.00,0.00,0.00,0.00
2016-10-28 15:20:00,2,9692,78,0.00,2,2,0,2,6489,15759,2795,8968,78,78,0,78,0.00,0.00,0.00,0.00
2016-10-28 15:30:00,2,9221,77,0.01,2,2,0,2,5915,12004,1836,9628,71,78,2,78,0.00,0.05,0.02,0.00
2016-10-28 15:40:00,2,8990,73,0.01,2,2,0,2,6216,13321,1846,9168,71,77,3,71,0.00,0.05,0.02,0.00
2016-10-28 15:50:00,2,5798,77,0.01,2,2,0,2,3183,8451,1599,5432,77,78,0,77,0.00,0.05,0.02,0.00
2016-10-28 16:00:00,2,4759,77,0.00,2,2,0,2,3244,6903,1348,4032,77,77,0,77,0.00,0.00,0.00,0.00
2016-10-28 16:10:00,2,3575,77,0.01,2,2,0,2,2623,5268,742,3281,77,77,0,77,0.00,0.05,0.02,0.00
2016-10-28 16:20:00,2,2931,77,0.01,2,2,0,2,2291,3426,363,2980,77,77,0,77,0.00,0.10,0.03,0.00
2016-10-28 16:30:00,2,3824,73,0.02,2,2,0,2,2541,5399,774,3858,71,77,3,71,0.00,0.15,0.05,0.00
2016-10-28 16:40:00,2,4516,61,0.00,2,2,0,2,3099,6831,1065,4334,10,77,25,71,0.00,0.00,0.00,0.00
2016-10-28 16:50:00,2,3539,10,0.00,2,2,0,2,3022,4688,536,3300,10,10,0,10,0.00,0.00,0.00,0.00
2016-10-28 17:00:00,2,3396,22,0.01,2,2,0,2,2364,4412,571,3490,10,71,24,10,0.00,0.05,0.02,0.00
2016-10-28 17:10:00,2,4614,77,0.00,2,2,0,2,3316,6159,880,4291,77,77,0,77,0.00,0.00,0.00,0.00
2016-10-28 17:20:00,2,5245,10,0.00,2,2,0,2,2992,7555,1576,4804,10,10,0,10,0.00,0.00,0.00,0.00
2016-10-28 17:30:00,2,4777,10,0.00,2,2,0,2,2846,6632,1069,4745,10,10,0,10,0.00,0.00,0.00,0.00
2016-10-28 17:40:00,2,3690,61,0.01,2,2,0,2,2739,4821,768,3390,10,77,26,71,0.00,0.05,0.02,0.00
2016-10-28 17:50:00,2,2105,77,0.02,2,2,0,2,1481,2729,437,2200,77,77,0,77,0.00,0.05,0.02,0.00
2016-10-28 18:00:00,2,2380,77,0.01,2,2,0,2,1993,3670,464,2192,77,77,0,77,0.00,0.05,0.02,0.00
2016-10-28 18:10:00,2,1890,77,0.06,2,2,0,2,1340,2428,383,2008,77,77,0,77,0.00,0.15,0.04,0.05
2016-10-28 18:20:00,2,1914,77,0.06,2,2,0,2,1458,2605,313,1846,77,77,0,77,0.00,0.20,0.06,0.05
2016-10-28 18:30:00,2,1946,77,0.08,2,2,0,2,1466,2413,262,1932,77,77,0,77,0.00,0.15,0.05,0.08
2016-10-28 18:40:00,2,1743,75,0.22,2,2,0,2,1163,2696,450,1646,71,77,3,77,0.05,0.60,0.18,0.20
2016-10-28 18:50:00,2,2220,77,0.07,2,2,0,2,1764,2837,303,2186,77,77,0,77,0.05,0.10,0.02,0.05
2016-10-28 19:00:00,2,2604,77,0.06,2,2,0,2,1834,3536,530,2538,77,77,0,77,0.05,0.10,0.02,0.05
2016-10-28 19:10:00,2,2739,77,0.05,2,2,0,2,1945,3874,635,2606,77,77,0,77,0.00,0.10,0.03,0.05
2016-10-28 19:20:00,2,2830,77,0.04,2,2,0,2,1948,3617,509,3100,77,77,0,77,0.00,0.10,0.03,0.05
2016-10-28 19:30:00,2,2965,77,0.05,2,2,0,2,1873,4267,801,2985,77,77,0,77,0.00,0.10,0.03,0.05
2016-10-28 19:40:00,2,2124,77,0.12,2,2,0,2,1403,4401,821,1969,77,77,0,77,0.05,0.25,0.07,0.10
2016-10-28 19:50:00,2,2954,77,0.04,2,2,0,2,1920,4403,742,2953,77,77,0,77,0.00,0.10,0.03,0.05
2016-10-28 20:00:00,2,2801,77,0.05,2,2,0,2,2410,3568,384,2643,77,77,0,77,0.00,0.10,0.02,0.05
2016-10-28 20:10:00,2,3428,77,0.04,2,2,0,2,2423,5750,928,3193,77,77,0,77,0.00,0.05,0.02,0.05
2016-10-28 20:20:00,2,2591,77,0.07,2,2,0,2,1668,3576,611,2537,77,77,0,77,0.00,0.10,0.03,0.05
2016-10-28 20:30:00,2,2225,77,0.11,2,2,0,2,1391,3022,577,2272,77,77,0,77,0.05,0.30,0.08,0.08
2016-10-28 20:40:00,2,2741,56,0.05,2,2,0,2,1751,4029,686,2646,0,77,32,77,0.00,0.10,0.04,0.05
2016-10-28 20:50:00,2,2914,56,0.03,2,2,0,2,1896,3853,711,2856,10,77,30,74,0.00,0.10,0.03,0.03
2016-10-28 21:00:00,2,2804,42,0.07,2,2,0,2,1381,5714,1213,2834,10,77,32,40,0.00,0.25,0.09,0.00
2016-10-28 21:10:00,2,2059,75,0.08,2,2,0,2,1407,2811,378,1950,71,77,3,77,0.00,0.20,0.06,0.08
2016-10-28 21:20:00,2,2431,69,0.04,2,2,0,2,2207,2723,146,2393,10,77,20,77,0.00,0.05,0.02,0.05
2016-10-28 21:30:00,2,2826,77,0.04,2,2,0,2,1697,4331,822,2740,77,77,0,77,0.00,0.10,0.03,0.05
2016-10-28 21:40:00,2,3558,77,0.02,2,2,0,2,2717,5147,815,3386,77,77,0,77,0.00,0.05,0.02,0.00
2016-10-28 21:50:00,2,3106,77,0.02,2,2,0,2,2327,4653,771,2806,77,77,0,77,0.00,0.05,0.02,0.00
2016-10-28 22:00:00,2,2531,77,0.03,2,2,0,2,1891,3455,514,2637,77,77,0,77,0.00,0.05,0.02,0.05
2016-10-28 22:10:00,2,2951,77,0.04,2,2,0,2,2052,4121,645,2805,77,77,0,77,0.00,0.05,0.02,0.05
2016-10-28 22:20:00,2,2667,77,0.05,2,2,0,2,1993,3599,462,2692,77,77,0,77,0.00,0.10,0.02,0.05
2016-10-28 22:30:00,2,2521,77,0.06,2,2,0,2,2013,4249,606,2454,77,77,0,77,0.00,0.10,0.03,0.05
2016-10-28 22:40:00,2,4527,77,0.03,2,2,0,2,3193,6007,918,4380,77,77,0,77,0.00,0.05,0.02,0.05
2016-10-28 22:50:00,2,6338,77,0.00,2,2,0,2,5107,9029,1138,5852,77,77,0,77,0.00,0.00,0.00,0.00
2016-10-28 23:00:00,2,6266,77,0.01,2,2,0,2,4461,8279,1056,6192,77,77,0,77,0.00,0.05,0.02,0.00
2016-10-28 23:10:00,2,6984,77,0.00,2,2,0,2,5305,8846,1184,6656,77,77,0,77,0.00,0.00,0.00,0.00
2016-10-28 23:20:00,2,6181,77,0.00,2,2,0,2,3826,8530,1278,5869,77,77,0,77,0.00,0.00,0.00,0.00
2016-10-28 23:30:00,2,7645,77,0.00,2,2,0,2,5054,11052,1930,7380,77,77,0,77,0.00,0.00,0.00,0.00
2016-10-28 23:40:00,2,9156,50,0.01,2,2,0,2,5244,16538,3163,8437,10,77,33,77,0.00,0.05,0.02,0.00
2016-10-28 23:50:00,2,13792,35,0.00,2,2,0,2,6979,24802,5638,12576,0,78,33,10,0.00,0.00,0.00,0.00
